Regional Weather Roundup
Issued by NWS

Home | Current Version | Previous Version | Graphics & Text | Print | Product List | Glossary On
Versions: 1 2 3 4 5 6 7 8 9 10 11 12 13 14 15 16 17 18 19 20 21 22 23 24 25 26 27 28 29 30 31 32 33 34 35 36 37 38 39 40 41 42 43 44 45 46 47 48 49 50
141
ASUS45 KPSR 220610
RWRAZ

ARIZONA HOURLY REGIONAL WEATHER ROUNDUP
NATIONAL WEATHER SERVICE PHOENIX AZ
1100 PM MST MON AUG 21 2017

NOTE: FAIR INDICATES FEW OR NO CLOUDS BELOW 12,000 FEET WITH NO
SIGNIFICANT WEATHER AND/OR OBSTRUCTIONS TO VISIBILITY.

AZZ001>003-036-220700-
NORTHWEST ARIZONA

CITY           SKY/WX    TMP DP  RH WIND       PRES   REMARKS
BULLHEAD CITY  CLEAR     90  52  27 E6        29.91S
KINGMAN        CLEAR     62  60  93 S3        30.13S
6HR MIN TEMP:  62; 6HR MAX TEMP:  78;

$$

AZZ004>008-015-016-018-220700-
NORTH CENTRAL ARIZONA

CITY           SKY/WX    TMP DP  RH WIND       PRES   REMARKS
GRAND CANYON   CLOUDY    58  57  97 NE6       30.34S
6HR MIN TEMP:  56; 6HR MAX TEMP:  70;

WILLIAMS       PTCLDY    55  52  88 S8        30.35S
PRESCOTT       PTCLDY    63  53  70 S8        30.23S
6HR MIN TEMP:  63; 6HR MAX TEMP:  78;

FLAGSTAFF      CLEAR     54  51  90 CALM      30.37S
6HR MIN TEMP:  54; 6HR MAX TEMP:  71;

PAYSON           N/A     64  55  72 CALM      30.24S
PAGE           MOCLDY    79  47  32 W6        30.15R
6HR MIN TEMP:  79; 6HR MAX TEMP:  92;

$$

AZZ009>014-017-220700-
NORTHEAST ARIZONA

CITY           SKY/WX    TMP DP  RH WIND       PRES   REMARKS
WINSLOW        PTCLDY    70  53  54 CALM      30.21R
6HR MIN TEMP:  70; 6HR MAX TEMP:  90;

SAINT JOHNS    MOCLDY    70  51  51 CALM      30.26R
6HR MIN TEMP:  68; 6HR MAX TEMP:  84;

WINDOW ROCK    PTCLDY    59  51  75 CALM      30.35R
6HR MIN TEMP:  59; 6HR MAX TEMP:  73;

SHOW LOW       MOCLDY    63  54  72 SW3       30.32R
$$

AZZ540-542>544-546-548-220700-
GREATER PHOENIX AREA

CITY           SKY/WX    TMP DP  RH WIND       PRES   REMARKS
PHOENIX        CLEAR     93  55  27 SW8       29.89R
6HR MIN TEMP:  93; 6HR MAX TEMP: 103;

BUCKEYE        CLEAR     90  54  29 NW7       29.91S
DEER VALLEY    CLEAR     88  53  30 NW5       29.92R
6HR MIN TEMP:  88; 6HR MAX TEMP: 100;

SCOTTSDALE     CLEAR     91  53  27 CALM      29.93S
6HR MIN TEMP:  91; 6HR MAX TEMP: 101;

MESA-GATEWAY   CLEAR     86  52  30 SE3       29.93R
$$

AZZ539-553-220700-
SOUTHWEST MARICOPA COUNTY AND PINAL COUNTY

CITY           SKY/WX    TMP DP  RH WIND       PRES   REMARKS
CASA GRANDE    CLEAR     86  54  33 CALM      29.94R
6HR MIN TEMP:  85; 6HR MAX TEMP:  99;

GILA BEND      CLEAR     90  50  24 CALM      29.89R
6HR MIN TEMP:  90; 6HR MAX TEMP: 103;

$$

AZZ503-504-507>509-220700-
SOUTHEAST ARIZONA

CITY           SKY/WX    TMP DP  RH WIND       PRES   REMARKS
TUCSON         NOT AVBL
DAVIS-MONTHAN  CLEAR     81  53  37 CALM      30.02S
6HR MIN TEMP:  81; 6HR MAX TEMP: 100;

NOGALES        CLOUDY    78  59  51 S6        30.14R
6HR MIN TEMP:  75; 6HR MAX TEMP:  90;

SIERRA VISTA   CLOUDY    77  49  37 CALM      30.20S
6HR MIN TEMP:  75; 6HR MAX TEMP:  85;

DOUGLAS        PTCLDY    72  59  63 E7        30.15S
6HR MIN TEMP:  70; 6HR MAX TEMP:  87;

SAFFORD        CLEAR     76  51  41 N5        30.05R
6HR MIN TEMP:  75; 6HR MAX TEMP:  93;

$$

AZZ532-220700-
SOUTHWEST ARIZONA

CITY           SKY/WX    TMP DP  RH WIND       PRES   REMARKS
YUMA           CLEAR     88  57  34 W5        29.85R
6HR MIN TEMP:  88; 6HR MAX TEMP: 105;

$$

CAZ041-043-047-048-061-525>527-560>570-220700-
SOUTHERN CALIFORNIA

CITY           SKY/WX    TMP DP  RH WIND       PRES   REMARKS
DOWNTOWN L.A.  CLEAR     69  63  81 W3        29.98S
6HR MIN TEMP:  69; 6HR MAX TEMP:  77;

L.A. AIRPORT   PTCLDY    68  64  87 W12       29.99S
6HR MIN TEMP:  68; 6HR MAX TEMP:  73;

SAN DIEGO      PTCLDY    70  62  76 N7        30.00S
6HR MIN TEMP:  70; 6HR MAX TEMP:  76;

BURBANK        CLEAR     68  59  73 E5        29.99S
6HR MIN TEMP:  68; 6HR MAX TEMP:  81;

ONTARIO        CLEAR     70  59  68 W6        29.99S
6HR MIN TEMP:  69; 6HR MAX TEMP:  87;

RIVERSIDE      CLEAR     69  60  73 W3        30.00R
6HR MIN TEMP:  69; 6HR MAX TEMP:  86;

PALM SPRINGS   CLEAR     90  54  29 NW9       29.89R
6HR MIN TEMP:  90; 6HR MAX TEMP: 105;

EL CENTRO NAS  CLEAR     88  42  20 S9        29.85R
6HR MIN TEMP:  88; 6HR MAX TEMP: 104;

IMPERIAL       CLEAR     89  50  26 W7        29.82R
6HR MIN TEMP:  89; 6HR MAX TEMP: 105;

BLYTHE         CLEAR     93  55  27 NE8       29.86S
6HR MIN TEMP:  93; 6HR MAX TEMP: 105;

NEEDLES        CLEAR     91  54  28 S5        29.92R
6HR MIN TEMP:  90; 6HR MAX TEMP: 103;

$$

NVZ020-UTZ003-220700-
SOUTHERN NEVADA-UTAH

CITY           SKY/WX    TMP DP  RH WIND       PRES   REMARKS
LAS VEGAS      PTCLDY    85  53  33 CALM      30.03R
6HR MIN TEMP:  85; 6HR MAX TEMP:  92;

SALT LAKE CITY PTCLDY    77  45  32 S8        30.13R
6HR MIN TEMP:  77; 6HR MAX TEMP:  92;

$$

NMZ009-TXZ055-220700-
NEW MEXICO-WEST TEXAS

CITY           SKY/WX    TMP DP  RH WIND       PRES   REMARKS
ALBUQUERQUE    CLOUDY    73  57  57 SW5       30.26R
6HR MIN TEMP:  72; 6HR MAX TEMP:  79;

EL PASO        CLEAR     79  66  64 NE5       30.14S
6HR MIN TEMP:  76; 6HR MAX TEMP:  87;

$$


........................KEY........................
SKY/WX - SKY CONDITION/WEATHER
TMP    - TEMPERATURE IN FAHRENHEIT
DP     - DEW POINT IN FAHRENHEIT
RH     - RELATIVE HUMIDITY IN PERCENT
WIND   - DIRECTION AND SPEED IN MILES PER HOUR (MPH)
VRB    - VARIABLE WIND DIRECTION
PRES   - MEAN SEA LEVEL PRESSURE IN INCHES OF MERCURY
         F - FALLING PRESSURE   R - RISING PRESSURE
         S - STEADY PRESSURE
VSB    - VISIBILITY IN MILES
HX     - HEAT INDEX IN FAHRENHEIT
WCI    - WIND CHILL INDEX IN FAHRENHEIT
TC     - TEMPERATURE IN CELSIUS WHICH IS ALSO KNOWN AS
         TEMPERATURE IN CENTIGRADE
AFB    - AIR FORCE BASE
         LUKE AFB IS LUKE AIR FORCE BASE
         DAVIS-MONTHAN IS DAVIS-MONTHAN AIR FORCE BASE
NAS    - NAVAL AIR STATION
         EL CENTRO NAS IS EL CENTRO NAVAL AIR STATION
N/A    - NOT AVAILABLE





USA.gov is the U.S. government's official web portal to all federal, state and local government web resources and services.